GW1757 Weather Reports


time (UTC)temp
C
wind
direction
speed
KPH
gust
KPH
rain 1hr
cm
rain 24hr
cm
rain mn
cm
humidity
%
barometer
mb
20260505221539 26 119 0.0 0.0 0.00 0.10 0.10 91 1008.1
20260505221033 26 95 0.0 0.0 0.00 0.10 0.10 91 1008.2
20260505220528 26 95 0.0 0.0 0.00 0.10 0.10 91 1008.1
20260505220021 26 93 0.0 0.0 0.00 0.10 0.10 91 1008.2
20260505215516 26 91 0.0 0.0 0.00 0.10 0.10 91 1008.1
20260505215009 26 122 0.0 0.0 0.00 0.10 0.10 91 1008.2
20260505214503 25 135 0.0 0.0 0.00 0.10 0.10 91 1008.1
20260505214217 25 114 0.0 0.0 0.00 0.10 0.10 91 1008.1
20260505213453 25 110 0.0 0.0 0.00 0.10 0.10 91 1008.0
20260505212945 25 118 0.0 0.0 0.00 0.10 0.10 92 1008.0
20260505212657 25 110 0.0 0.0 0.00 0.10 0.10 92 1008.0
20260505212158 25 112 0.0 0.0 0.00 0.10 0.10 92 1007.9
20260505211427 26 136 0.0 0.0 0.00 0.10 0.10 92 1007.9
20260505210922 26 122 0.0 0.0 0.00 0.10 0.10 92 1007.9
20260505210415 26 108 0.0 0.0 0.00 0.10 0.10 92 1007.8
20260505205909 26 106 0.0 0.0 0.00 0.10 0.10 92 1007.8
20260505205403 26 91 0.0 0.0 0.00 0.10 0.10 92 1007.7
20260505205118 25 102 0.0 0.0 0.00 0.10 0.10 92 1007.7
20260505204351 25 97 0.0 0.0 0.00 0.10 0.10 92 1007.6
20260505203845 25 90 0.0 4.8 0.00 0.10 0.10 92 1007.5
20260505203340 25 83 0.0 4.8 0.00 0.10 0.10 92 1007.5
20260505202930 25 92 0.0 0.0 0.03 0.10 0.10 92 1007.5
20260505201836 25 74 1.6 6.4 0.03 0.10 0.10 92 1007.4
20260505201554 25 83 1.6 6.4 0.03 0.10 0.10 92 1007.4
20260505200836 25 114 1.6 6.4 0.03 0.10 0.10 93 1007.4
20260505200333 25 129 0.0 6.4 0.03 0.10 0.10 93 1007.2
20260505195838 25 110 1.6 12.9 0.03 0.10 0.10 92 1007.2
20260505195556 25 129 1.6 12.9 0.03 0.10 0.10 92 1007.1
20260505194833 25 127 3.2 9.7 0.03 0.10 0.10 92 1007.2
20260505194335 25 129 4.8 11.3 0.03 0.10 0.10 92 1007.1
20260505193834 25 108 4.8 11.3 0.03 0.10 0.10 92 1007.1
20260505193331 26 86 4.8 14.5 0.03 0.10 0.10 92 1007.1
20260505192830 26 101 3.2 14.5 0.00 0.08 0.08 91 1007.1
20260505192551 26 91 1.6 6.4 0.00 0.08 0.08 91 1007.0
20260505191831 26 109 4.8 8.0 0.00 0.08 0.08 91 1007.0
20260505191334 26 83 4.8 8.0 0.00 0.08 0.08 91 1007.0
20260505190829 26 50 4.8 12.9 0.00 0.08 0.08 91 1007.0
20260505190329 26 74 6.4 14.5 0.00 0.08 0.08 91 1006.9
20260505185828 26 77 8.0 14.5 0.00 0.08 0.08 91 1006.9
20260505185547 26 106 8.0 14.5 0.00 0.08 0.08 90 1007.0
20260505184829 26 85 8.0 14.5 0.03 0.08 0.08 90 1007.1
20260505184329 26 71 8.0 14.5 0.03 0.08 0.08 90 1007.1
20260505183829 26 68 8.0 12.9 0.08 0.08 0.08 90 1007.1
20260505183329 26 72 6.4 12.9 0.08 0.08 0.08 90 1007.0
20260505182829 26 78 6.4 12.9 0.08 0.08 0.08 90 1007.1
20260505182330 26 87 6.4 12.9 0.08 0.08 0.08 90 1007.2
20260505182049 26 75 6.4 12.9 0.08 0.08 0.08 90 1007.2
20260505181553 26 64 6.4 11.3 0.08 0.08 0.08 91 1007.1
20260505180829 26 79 4.8 9.7 0.08 0.08 0.08 91 1007.2
20260505180548 26 56 4.8 9.7 0.08 0.08 0.08 91 1007.3
20260505175829 26 29 6.4 11.3 0.08 0.08 0.08 91 1007.2
20260505175329 26 33 4.8 12.9 0.08 0.08 0.08 91 1007.2
20260505174829 26 18 6.4 16.1 0.05 0.05 0.05 91 1007.3
20260505174328 26 59 8.0 16.1 0.05 0.05 0.05 91 1007.5
20260505174048 26 55 8.0 14.5 0.00 0.00 0.00 90 1007.6
20260505173316 26 68 6.4 12.9 0.00 0.00 0.00 91 1007.7
20260505172811 26 86 6.4 14.5 0.00 0.00 0.00 90 1007.7
20260505172306 26 78 6.4 19.3 0.00 0.00 0.00 90 1007.8
20260505172028 26 66 3.2 19.3 0.00 0.00 0.00 90 1007.8
20260505171252 26 73 1.6 9.7 0.00 0.00 0.00 90 1007.8
20260505170747 26 31 3.2 8.0 0.00 0.00 0.00 90 1007.9
20260505170240 26 45 3.2 8.0 0.00 0.00 0.00 90 1007.9
20260505165734 26 23 1.6 8.0 0.00 0.00 0.00 90 1007.9
20260505165229 26 56 0.0 0.0 0.00 0.00 0.00 90 1008.1
20260505164725 26 27 0.0 0.0 0.00 0.00 0.00 89 1008.1
20260505164217 26 354 0.0 0.0 0.00 0.00 0.00 89 1008.1
20260505163710 26 349 0.0 0.0 0.00 0.00 0.00 89 1008.2
20260505163429 26 354 0.0 0.0 0.00 0.00 0.00 89 1008.2
20260505162659 26 349 0.0 0.0 0.00 0.00 0.00 89 1008.3
20260505162152 26 348 0.0 0.0 0.00 0.00 0.00 89 1008.3
20260505161646 26 359 0.0 0.0 0.00 0.00 0.00 89 1008.3
20260505161140 26 354 0.0 0.0 0.00 0.00 0.00 89 1008.3
20260505160635 26 349 0.0 0.0 0.00 0.00 0.00 89 1008.3
20260505160128 26 32 0.0 0.0 0.00 0.00 0.00 90 1008.4
20260505153053 26 231 0.0 3.2 0.00 0.00 0.00 90 1008.6
20260505152549 26 228 0.0 0.0 0.00 0.00 0.00 90 1008.6
20260505152041 26 359 0.0 1.6 0.00 0.00 0.00 90 1008.7
20260505151535 26 283 1.6 9.7 0.00 0.00 0.00 90 1008.7
20260505151247 26 244 4.8 9.7 0.00 0.00 0.00 90 1008.7
20260505150523 26 231 3.2 6.4 0.00 0.00 0.00 90 1008.7
20260505140411 26 230 1.6 6.4 0.00 0.00 0.00 89 1008.9
20260505130300 26 217 1.6 8.0 0.00 0.00 0.00 89 1008.2
20260505124741 27 359 0.0 3.2 0.00 0.00 0.00 89 1008.1
20260505124236 26 286 1.6 3.2 0.00 0.00 0.00 89 1007.9
20260505123729 26 285 1.6 3.2 0.00 0.00 0.00 89 1007.9
20260505123223 27 282 0.0 3.2 0.00 0.00 0.00 89 1007.8
20260505122717 27 285 0.0 3.2 0.00 0.00 0.00 89 1007.8
20260505122211 27 359 0.0 0.0 0.00 0.00 0.00 89 1007.7
20260505121705 27 350 0.0 3.2 0.00 0.00 0.00 89 1007.7
20260505121159 27 359 1.6 4.8 0.00 0.00 0.00 89 1007.7
20260505120653 27 354 3.2 4.8 0.00 0.00 0.00 89 1007.6
20260505120147 27 359 3.2 6.4 0.00 0.00 0.00 89 1007.6
20260505115648 27 25 3.2 6.4 0.00 0.00 0.00 89 1007.5
20260505115413 27 12 3.2 4.8 0.00 0.00 0.00 89 1007.5
20260505114653 27 12 3.2 6.4 0.00 0.00 0.00 89 1007.5
20260505114149 27 17 4.8 8.0 0.00 0.00 0.00 89 1007.4
20260505113648 27 18 3.2 8.0 0.00 0.00 0.00 89 1007.5
20260505113147 27 350 3.2 4.8 0.00 0.00 0.00 89 1007.5
20260505112650 27 359 3.2 4.8 0.00 0.00 0.00 89 1007.4
20260505112145 27 359 3.2 4.8 0.00 0.00 0.00 89 1007.5
20260505111645 27 354 3.2 6.4 0.00 0.00 0.00 88 1007.4
20260505111145 27 345 3.2 8.0 0.00 0.00 0.00 88 1007.4
20260505110914 27 21 4.8 9.7 0.00 0.00 0.00 88 1007.4
20260505110145 27 36 4.8 9.7 0.00 0.00 0.00 88 1007.4
20260505102148 27 28 6.4 12.9 0.00 0.00 0.00 86 1007.1
20260505101645 27 41 6.4 14.5 0.00 0.00 0.00 86 1007.2
20260505101409 27 16 6.4 16.1 0.00 0.00 0.00 86 1007.1
20260505100645 27 32 8.0 16.1 0.00 0.00 0.00 85 1006.9
20260505100145 27 25 8.0 19.3 0.00 0.00 0.00 85 1006.9
20260505095645 27 52 6.4 19.3 0.00 0.00 0.00 85 1006.8
20260505095145 28 10 4.8 11.3 0.00 0.00 0.00 85 1006.7
20260505094645 28 73 4.8 12.9 0.00 0.00 0.00 84 1006.6
20260505094144 28 12 4.8 12.9 0.00 0.00 0.00 83 1006.5
20260505093643 28 12 6.4 16.1 0.00 0.00 0.00 83 1006.4
20260505093142 28 348 6.4 16.1 0.00 0.00 0.00 82 1006.4
20260505092642 28 18 4.8 14.5 0.00 0.00 0.00 82 1006.4
20260505092136 28 4 6.4 14.5 0.00 0.00 0.00 82 1006.4
20260505091630 28 359 4.8 14.5 0.00 0.00 0.00 81 1006.3
20260505091352 28 354 6.4 14.5 0.00 0.00 0.00 81 1006.2
20260505090618 28 16 6.4 16.1 0.00 0.00 0.00 81 1006.2
20260505090113 28 328 6.4 16.1 0.00 0.00 0.00 81 1006.2
20260505085606 28 18 6.4 14.5 0.00 0.00 0.00 81 1006.2
20260505085325 28 29 4.8 14.5 0.00 0.00 0.00 82 1006.3
20260505084554 28 29 6.4 16.1 0.00 0.00 0.00 82 1006.3
20260505084048 28 41 8.0 16.1 0.00 0.00 0.00 80 1006.2
20260505083543 28 322 9.7 16.1 0.00 0.00 0.00 80 1006.3
20260505083036 28 33 9.7 16.1 0.00 0.00 0.00 80 1006.2
20260505082530 29 12 8.0 17.7 0.00 0.00 0.00 79 1006.2
20260505082024 29 4 8.0 16.1 0.00 0.00 0.00 80 1006.3
20260505081518 29 349 8.0 16.1 0.00 0.00 0.00 79 1006.2
20260505081012 29 52 8.0 16.1 0.00 0.00 0.00 78 1006.2
20260505080506 29 350 6.4 14.5 0.00 0.00 0.00 78 1006.2
20260505080000 29 333 6.4 17.7 0.00 0.00 0.00 78 1006.2
20260505075454 29 77 8.0 17.7 0.00 0.00 0.00 78 1006.2
20260505075214 29 48 8.0 17.7 0.00 0.00 0.00 80 1006.2
20260505074442 29 83 9.7 19.3 0.00 0.00 0.00 79 1006.2
20260505073936 29 23 9.7 20.9 0.00 0.00 0.00 78 1006.3
20260505073432 29 82 9.7 20.9 0.00 0.00 0.00 78 1006.2
20260505072924 29 26 9.7 17.7 0.00 0.00 0.00 78 1006.4
20260505072418 28 17 11.3 17.7 0.00 0.00 0.00 79 1006.3
20260505071912 28 339 9.7 17.7 0.00 0.00 0.00 76 1006.3
20260505071406 29 63 9.7 17.7 0.00 0.00 0.00 77 1006.3
20260505070900 28 341 9.7 20.9 0.00 0.00 0.00 78 1006.4
20260505070354 28 11 9.7 20.9 0.00 0.00 0.00 78 1006.6
20260505065849 29 27 8.0 19.3 0.00 0.00 0.00 77 1006.5
20260505065342 29 340 6.4 14.5 0.00 0.00 0.00 79 1006.5
20260505064836 29 68 8.0 14.5 0.00 0.00 0.00 81 1006.6
20260505064330 29 15 8.0 14.5 0.00 0.00 0.00 79 1006.7
20260505063824 28 39 8.0 16.1 0.00 0.00 0.00 81 1006.7
20260505063319 28 42 9.7 17.7 0.00 0.00 0.00 80 1006.7
20260505062813 28 16 9.7 17.7 0.00 0.00 0.00 81 1006.7
20260505062311 28 13 8.0 17.7 0.00 0.00 0.00 80 1006.7
20260505062031 28 4 8.0 17.7 0.00 0.00 0.00 82 1006.8
20260505061531 28 48 9.7 20.9 0.00 0.00 0.00 81 1006.8
20260505061032 28 33 8.0 20.9 0.00 0.00 0.00 82 1006.8
20260505060309 28 44 8.0 17.7 0.00 0.00 0.00 82 1006.9
20260505055808 28 347 8.0 19.3 0.00 0.00 0.00 82 1007.0
20260505055309 28 50 8.0 19.3 0.00 0.00 0.00 81 1007.0
20260505054807 28 359 9.7 19.3 0.00 0.00 0.00 81 1007.0
20260505054306 28 10 9.7 19.3 0.00 0.00 0.00 81 1007.1
20260505053807 28 52 9.7 19.3 0.00 0.00 0.00 80 1007.1
20260505053305 28 68 9.7 19.3 0.00 0.00 0.00 81 1007.1
20260505052804 28 23 9.7 20.9 0.00 0.00 0.00 80 1007.1
20260505052305 28 31 9.7 20.9 0.00 0.00 0.00 80 1007.2
20260505051804 28 30 9.7 19.3 0.00 0.00 0.00 81 1007.4
20260505051305 28 359 8.0 19.3 0.00 0.00 0.00 83 1007.4
20260505050805 28 359 9.7 19.3 0.00 0.00 0.00 82 1007.5
20260505050305 28 73 11.3 19.3 0.00 0.00 0.00 82 1007.5
20260505041220 28 8 11.3 22.5 0.00 0.00 0.00 80 1008.0
20260505041205 29 28 9.7 22.5 0.00 0.00 0.00 80 1008.1
20260505040220 29 30 8.0 22.5 0.00 0.00 0.00 79 1008.0
20260505035720 29 359 8.0 19.3 0.00 0.00 0.00 80 1008.1
20260505035220 28 330 11.3 20.9 0.00 0.00 0.00 83 1008.1
20260505034722 28 4 12.9 24.1 0.00 0.00 0.00 82 1008.3
20260505034221 28 354 11.3 24.1 0.00 0.00 0.00 82 1008.2
20260505033720 28 31 9.7 22.5 0.00 0.00 0.00 81 1008.3
20260505033225 28 64 9.7 20.9 0.00 0.00 0.00 81 1008.4
20260505032720 28 23 11.3 20.9 0.00 0.00 0.00 82 1008.3
20260505032221 28 345 12.9 20.9 0.00 0.00 0.00 82 1008.4
20260505031720 28 8 14.5 24.1 0.00 0.00 0.00 83 1008.5
20260505031220 28 359 14.5 24.1 0.00 0.00 0.00 82 1008.6
20260505030721 28 334 12.9 24.1 0.00 0.00 0.00 83 1008.6
20260505030223 28 42 11.3 20.9 0.00 0.00 0.00 82 1008.7
20260505025718 28 8 12.9 19.3 0.00 0.00 0.00 82 1008.7
20260505025441 28 359 11.3 19.3 0.00 0.00 0.00 84 1008.8
20260505024718 28 16 11.3 19.3 0.00 0.00 0.00 83 1008.9
20260505024224 28 354 12.9 22.5 0.00 0.00 0.00 83 1008.8
20260505023718 28 18 12.9 22.5 0.00 0.00 0.00 83 1008.7
20260505023440 28 345 12.9 22.5 0.00 0.00 0.00 83 1008.8
20260505022719 28 24 11.3 20.9 0.00 0.00 0.00 83 1008.8
20260505022218 28 9 9.7 19.3 0.00 0.00 0.00 82 1008.8
20260505021944 28 359 9.7 19.3 0.00 0.00 0.00 83 1008.9
20260505021218 28 8 8.0 19.3 0.00 0.00 0.00 83 1008.9
20260505020718 28 350 8.0 19.3 0.00 0.00 0.00 82 1008.9
20260505020216 28 21 9.7 19.3 0.00 0.00 0.00 84 1008.9
20260505015716 27 4 11.3 19.3 0.00 0.00 0.00 84 1009.0
20260505015216 28 23 8.0 19.3 0.00 0.00 0.00 84 1009.1
20260505014716 28 341 6.4 19.3 0.00 0.00 0.00 86 1009.2
20260505014216 27 25 8.0 14.5 0.00 0.00 0.00 86 1009.1
20260505013716 27 28 8.0 16.1 0.00 0.00 0.00 84 1009.1
20260505013220 27 25 8.0 17.7 0.00 0.00 0.00 85 1009.1
20260505012715 28 45 8.0 17.7 0.00 0.00 0.00 85 1009.1
20260505012209 28 340 8.0 16.1 0.00 0.00 0.00 85 1009.2
20260505011703 28 20 6.4 16.1 0.00 0.00 0.00 83 1009.2
20260505011157 28 28 4.8 16.1 0.00 0.00 0.00 84 1009.2
20260505010651 28 54 1.6 8.0 0.00 0.00 0.00 83 1009.3
20260505010145 28 359 1.6 8.0 0.00 0.00 0.00 84 1009.3
20260505005641 28 192 1.6 8.0 0.00 0.00 0.00 83 1009.3
20260505005132 28 359 1.6 4.8 0.00 0.00 0.00 87 1009.4
20260505004626 27 160 0.0 4.8 0.00 0.00 0.00 87 1009.5
20260505004120 27 359 0.0 6.4 0.00 0.00 0.00 87 1009.5
20260505003616 27 123 1.6 6.4 0.00 0.00 0.00 86 1009.3
20260505003109 27 135 1.6 6.4 0.00 0.00 0.00 85 1009.3
20260505002823 27 112 0.0 4.8 0.00 0.00 0.00 86 1009.4
20260505002058 27 277 0.0 4.8 0.00 0.00 0.00 87 1009.5
20260505001813 27 314 0.0 4.8 0.00 0.00 0.00 87 1009.4
20260505001045 27 283 0.0 0.0 0.00 0.00 0.00 87 1009.5
20260505000539 27 264 0.0 0.0 0.00 0.00 0.00 86 1009.5
20260505000036 27 265 0.0 0.0 0.00 0.00 0.00 87 1009.4
20260504235526 27 161 0.0 0.0 0.00 0.00 0.00 88 1009.4
20260504235020 27 160 0.0 0.0 0.00 0.00 0.00 88 1009.3
20260504234515 27 161 0.0 0.0 0.00 0.00 0.00 88 1009.4
20260504234009 27 162 0.0 0.0 0.00 0.00 0.00 88 1009.4
20260504233504 27 163 0.0 0.0 0.00 0.00 0.00 88 1009.2
20260504233002 27 161 0.0 1.6 0.00 0.00 0.00 87 1009.2
20260504232711 27 162 0.0 1.6 0.00 0.00 0.00 88 1009.2
20260504231945 27 162 0.0 0.0 0.00 0.00 0.00 88 1009.1
20260504231438 27 162 0.0 0.0 0.00 0.00 0.00 88 1009.1
20260504230935 26 160 0.0 0.0 0.00 0.00 0.00 88 1009.0
20260504230909 26 162 0.0 0.0 0.00 0.10 0.00 89 1008.9
20260504225920 26 185 0.0 0.0 0.00 0.18 0.00 90 1009.0
20260504225415 25 185 0.0 0.0 0.00 0.23 0.00 90 1008.9
20260504225134 25 197 0.0 3.2 0.00 0.25 0.00 90 1008.9
20260504224403 25 199 0.0 3.2 0.00 0.33 0.00 90 1008.8
20260504223857 25 241 0.0 3.2 0.00 0.91 0.00 90 1008.8
20260504223351 25 197 0.0 4.8 0.00 1.45 0.00 90 1008.7
20260504222339 25 207 0.0 3.2 0.00 1.45 0.00 91 1008.7
20260504221832 25 226 0.0 0.0 0.00 1.47 0.00 91 1008.7